SCP
0 0 0 0 0 0 0 0 0 0 0 0 0 0 0 0 0 0 0 0 0 0 0 0 0 0 0 0 0 0 0 0 0 0 0 0 0 0
0 0 0 0 0 0 0 0 0 0 0 0 0 0 0 0 0 0 0 0 0 0 0 0 0 0 0 0 0 0 0 0 0 0 0 0 0 0
0 0 0 0 0 0 0 0 0 0 0 0 0 0 0 0 0 0 0 0 0 0 0 0 0 0 0 0 0 0 0 0 0 0 0 0 0 0
0 0 0 0 0 0 0 0 0 0 0 0 0 0 0 0 0 0 0 0 0 0 0 0 0 0 0 0 0 0 0 0 0 0 0 0 0 0
0 0 0 0 0 0 0 0 0 0 0 0 0 0 0 0 0 0 0 0 0 0 0 0 0 0 0 0 0 0 0 0 0 0 0 0 0 0
0 0 0 0 0 0 0 0 0 0 0 0 0 0 0 0 0 0 0 0 0 0 0 0 0 0 0 0 0 0 0 0 0 0 0 0 0 0
0 0 0 0 0 0 0 0 0 0 0 0 0 0 0 0 0 0 0 0 0 0 0 0 0 0 0 0 0 0 0 0 0 0 0 0 0 0
0 0 0 0 0 0 0 0 0 0 0 0 0 0 0 0 0 0 0 0 0 0 0 0 0 0 0 0 0 0 0 0 0 0 0 0 0 0
0 0 0 0 0 0 0 0 0 0 0 0 0 0 0 0 0 0 0 0 0 0 0 0 0 0 0 0 0 0 0 0 0 0 0 0 0 0
0 0 0 0 0 0 0 0 0 0 0 0 0 0 0 0 0 0 0 0 0 0 0 0 0 0 0 0 0 0 0 0 0 0 0 0 0 0
0 0 0 0 0 0 0 0 0 0 0 0 0 0 0 0 0 0 0 0 0 0 0 0 0 0 0 0 0 0 0 0 0 0 0 0 0 0
0 0 0 0 0 0 0 0 0 0 0 0 0 0 0 0 0 0 0 0 0 0 0 0 0 0 0 0 0 0 0 0 0 0 0 0 0 0
0 0 0 0 0 0 0 0 0 0 0 0 0 0 0 0 0 0 0 0 0 0 0 0 0 0 0 0 0 0 0 0 0 0 0 0 0 0
0 0 0 0 0 0 0 0 0 0 0 0 0 0 0 0 0 0 0 0 0 0 0 0 0 0 0 0 0 0 0 0 0 0 0 0 0 0
0 0 0 0 0 0 0 0 0 0 0 0 0 0 0 0 0 0 0 0 0 0 0 0 0 0 0 0 0 0 0 0 0 0 0 0 0 0
0 0 0 0 0 0 0 0 0 0 0 0 0 0 0 0 0 0 0 0 0 0 0 0 0 0 0 0 0 0 0 0 0 0 0 0 0 0
0 0 0 0 0 0 0 0 0 0 0 0 0 0 0 0 0 0 0 0 0 0 0 0 0 0 0 0 0 0 0 0 0 0 0 0 0 0
0 0 0 0 0 0 0 0 0 0 0 0 0 0 0 0 0 0 0 0 0 0 0 0 0 0 0 0 0 0 0 0 0 0 0 0 0 0
0 0 0 0 0 0 0 0 0 0 0 0 0 0 0 0 0 0 0 0 0 0 0 0 0 0 0 0 0 0 0 0 0 0 0 0 0 0
0 0 0 0 0 0 0 0 0 0 0 0 0 0 0 0 0 0 0 0 0 0 0 0 0 0 0 0 0 0 0 0 0 0 0 0 0 0
0 0 0 0 0 0 0 0 0 0 0 0 0 0 0 0 0 0 0 0 0 0 0 0 0 0 0 0 0 0 0 0 0 0 0 0 0 0
0 0 0 0 0 0 0 0 0 0 0 0 0 0 0 0 0 0 0 0 0 0 0 0 0 0 0 0 0 0 0 0 0 0 0 0 0 0
0 0 0 0 0 0 0 0 0 0 0 0 0 0 0 0 0 0 0 0 0 0 0 0 0 0 0 0 0 0 0 0 0 0 0 0 0 0
Wind_Speed
9 10 9 8 8 8 9 9 10 13 15 10 6 6 6 6 15 11 10 21 26 25 25 24 24 24 24 24 24 23 22 22 21 20 20 20 20 19
8 9 10 9 8 8 9 9 10 12 14 10 9 8 8 11 17 11 11 24 24 25 24 24 24 24 24 24 23 23 22 22 22 20 21 20 20 18
10 10 12 11 9 9 9 9 10 11 14 14 11 9 9 10 11 9 10 10 12 23 25 24 24 23 23 23 23 23 23 22 21 21 21 20 20 19
11 11 13 10 11 10 9 11 11 11 12 17 13 9 10 10 10 10 10 11 9 19 23 24 22 22 22 22 22 23 23 22 21 21 21 20 20 19
12 12 13 11 12 11 11 12 11 12 11 13 14 10 8 8 8 10 11 9 11 14 19 19 20 21 22 22 22 22 22 22 22 21 20 20 19 19
12 13 13 12 13 13 12 13 13 13 11 11 12 10 9 7 6 8 10 7 9 10 13 13 17 21 21 21 22 22 21 21 22 21 21 19 18 18
12 12 13 16 19 17 13 12 11 10 9 10 10 10 9 7 7 7 9 9 9 7 7 8 9 9 10 15 18 19 19 20 21 22 21 20 18 18
11 10 11 14 18 23 25 24 20 13 10 9 9 10 10 8 8 8 8 9 8 3 6 10 7 9 8 7 15 19 19 20 21 22 21 20 19 18
9 9 9 11 16 10 17 23 20 23 20 12 10 10 10 8 8 9 9 10 11 7 7 11 7 9 8 10 18 19 20 21 21 21 21 20 19 18
8 9 10 10 11 14 12 12 11 12 14 10 9 10 10 9 9 9 10 10 10 7 6 8 7 7 9 8 16 19 19 20 21 21 21 20 19 18
8 9 9 10 18 23 14 10 10 10 14 17 17 15 17 17 13 7 6 8 9 6 4 5 5 7 8 7 9 14 14 16 18 19 20 20 19 17
7 8 14 15 19 21 10 7 9 9 7 7 9 11 9 10 15 6 5 6 7 6 3 3 4 4 6 4 4 5 7 11 14 17 18 18 18 11
7 6 7 16 19 19 15 7 11 10 4 5 6 6 6 5 6 5 6 6 7 7 4 3 4 3 5 6 5 5 4 5 6 9 13 17 18 13
6 5 7 16 17 17 12 13 16 11 3 4 5 6 6 6 6 6 7 8 9 11 8 7 6 5 6 7 7 6 5 5 5 6 6 11 15 17
5 10 13 15 14 9 12 16 12 5 4 5 6 6 6 6 6 6 6 7 8 9 10 10 10 8 8 8 7 6 5 5 4 5 5 6 7 8
6 8 12 12 9 10 10 8 5 5 6 6 6 6 5 5 6 5 6 5 6 6 7 9 10 11 10 11 10 10 7 6 4 4 5 6 6 7
4 2 2 3 4 4 4 5 4 5 5 5 6 6 6 6 6 5 5 5 6 6 6 5 7 9 12 11 10 10 9 8 8 7 6 6 7 8
3 2 3 3 4 5 5 5 5 5 5 5 6 6 6 7 7 6 5 6 7 7 7 6 4 4 4 8 14 11 8 8 7 7 6 6 6 7
2 2 3 4 4 5 5 5 6 6 5 5 6 6 6 7 7 7 6 6 7 7 7 5 5 4 5 5 6 11 8 6 6 6 6 6 6 6
2 3 4 4 4 4 5 5 5 5 5 5 5 6 6 6 7 7 6 7 8 8 7 5 5 5 6 5 5 5 9 8 6 6 5 4 4 5
3 3 4 4 4 4 5 5 5 6 6 5 6 6 6 6 6 7 7 11 9 7 8 7 7 10 6 5 6 6 6 11 11 6 4 4 5 5
4 4 4 4 4 4 4 5 5 6 6 5 6 6 5 6 7 8 7 7 7 7 8 8 7 6 4 6 7 7 6 5 9 14 13 10 5 7
4 4 3 4 4 3 4 5 6 6 5 5 5 6 6 6 6 6 7 7 7 8 8 7 6 4 5 6 6 6 7 5 3 4 6 11 15 12
Wind_Direction
245 245 246 250 247 246 250 253 266 286 290 289 282 265 269 277 287 292 290 294 297 296 293 291 289 285 282 280 280 280 280 282 284 285 286 287 288 294
245 246 248 250 250 250 249 249 249 261 277 282 281 281 280 287 292 294 291 297 299 296 293 289 286 283 280 277 276 275 275 276 277 279 280 283 285 289
249 248 252 251 253 253 251 251 251 252 267 278 278 279 273 278 286 285 286 284 286 292 292 288 285 282 278 275 272 272 272 273 274 273 275 277 282 285
250 250 255 256 253 254 254 254 254 251 257 274 280 279 274 275 279 283 289 291 285 289 291 289 285 284 279 275 270 269 268 269 271 272 273 273 277 284
249 250 255 255 258 258 257 258 257 257 253 263 275 276 274 273 280 285 284 280 284 290 294 290 288 286 283 275 270 266 265 264 265 268 270 271 274 278
250 250 252 252 256 260 261 259 259 261 258 260 268 273 272 269 272 286 292 286 288 292 288 291 293 292 286 278 271 265 263 263 263 264 265 265 267 272
252 251 251 257 260 266 267 266 263 263 264 263 267 272 274 278 276 278 287 294 287 277 287 290 289 284 282 279 274 268 263 261 259 260 260 261 261 264
254 253 256 266 273 280 286 288 286 281 273 269 272 271 273 272 273 276 283 291 291 277 292 292 283 278 274 266 268 266 262 260 258 256 257 256 256 258
249 256 266 267 280 277 282 287 289 289 285 278 272 266 269 267 268 274 272 273 275 281 289 285 276 274 272 273 275 270 263 259 256 254 252 253 253 254
247 251 259 266 271 276 271 269 267 268 273 275 261 262 264 263 254 260 268 275 273 267 261 273 279 277 280 274 275 268 261 255 251 250 248 250 249 249
253 255 259 260 275 286 285 277 277 274 278 280 280 280 280 285 285 281 278 282 285 278 244 257 281 291 283 269 269 273 270 261 253 249 245 244 243 243
257 257 270 276 284 292 288 278 282 282 275 284 290 293 292 293 296 285 264 270 275 279 249 260 275 300 299 279 269 277 272 266 260 252 246 242 239 235
262 258 258 283 292 297 300 284 285 297 280 271 273 276 279 274 271 260 242 242 252 253 251 261 268 266 272 293 297 280 271 272 267 256 247 240 234 226
259 260 266 287 295 303 307 302 307 316 298 281 279 279 279 278 275 268 256 246 242 249 252 245 255 255 265 276 277 285 285 269 258 251 243 239 232 227
256 274 286 296 306 311 307 307 313 308 291 287 283 281 276 274 279 279 273 263 258 251 249 242 243 250 250 255 264 276 293 283 267 255 245 235 223 211
274 282 292 301 304 301 305 309 302 284 286 283 285 284 285 285 283 280 285 288 283 272 250 243 242 244 249 249 254 262 259 263 273 273 270 255 233 215
253 243 268 291 293 293 293 292 288 291 294 287 287 291 291 292 290 287 282 282 276 282 286 265 246 242 243 243 247 248 251 252 251 256 255 248 231 215
259 246 267 276 282 289 295 298 296 294 291 290 290 290 292 293 294 291 284 280 281 281 281 281 280 272 250 243 229 241 244 247 247 242 238 235 228 212
240 250 263 270 276 282 285 288 291 293 291 290 291 292 291 291 292 292 291 288 285 283 279 274 268 258 260 266 263 227 230 239 240 238 229 222 221 210
221 243 256 264 270 277 282 287 290 294 292 291 289 289 290 292 292 292 291 288 289 289 286 274 257 247 243 254 271 265 234 237 236 233 226 224 230 225
232 243 251 259 266 273 280 285 288 290 290 290 290 289 288 290 290 291 291 294 295 291 289 283 270 273 265 251 255 260 250 233 230 229 214 205 195 187
230 241 250 256 263 269 277 284 288 289 290 287 289 290 289 287 289 291 292 293 291 287 285 284 281 274 247 240 249 261 267 253 238 242 244 237 201 181
225 235 245 255 261 267 271 277 282 287 287 285 289 291 291 292 290 289 291 291 292 293 295 295 291 270 251 244 251 260 266 262 242 222 232 236 234 240